ニート彗星

C/2002 V1 ( NEAT )

English version
Home page
Total 6,336 html files since Dec. 4, 1995
Updated on September 22, 2004

---------------------------------------------------------------------

・ プロフィール

発見日 2002年11月6日
発見光度 17.3等
発見者 Near-Earth-Asteroid Tracking Team (Jet Propulsion Laboratory)

・ 写真集

・ 軌道要素

Epoch 2003 Feb. 10.0 TT = JDT 2452680.5
T 2003 Feb. 18.29558 TT                                 MPC
q   0.0992582            (2000.0)            P               Q
z  +0.0009751      Peri.  152.16959     -0.44702136     -0.08925158
 +/-0.0000018      Node    64.08842     -0.88655184     -0.08833518
e   0.9999032      Incl.   81.70499     +0.11915428     -0.99208420
>From 1397 observations 2002 Nov. 6-2003 Mar. 14, mean residual 0".59.

・ 星図

・ 光度変化

        m1 = 2.5 + 5 logΔ + 35   log r  [   ,-74]  (              〜2002年12月 6日)
        m1 = 5.8 + 5 logΔ + 22.5 log r  [-74,-40]  (2002年12月 6日〜2003年 1月 9日)
        m1 = 7.0 + 5 logΔ +  8.5 log r  [-40,  0]  (2003年 1月 9日〜2003年 2月18日)
        m1 = 5.8 + 5 logΔ +  6.6 log r  [  0, 75]  (2003年 2月18日〜2003年 5月 4日)
        m1 = 4.2 + 5 logΔ + 18   log r  [ 75,   ]  (2003年 5月 4日〜              )

        ※ 灰色の曲線は、m1 = 7.0 + 5 logΔ + 8.5 log r の光度曲線です。

---------------------------------------------------------------------

軌道要素はM.P.E.C. 2003-E59に掲載されたものです。
星図は StellaNavigator Ver.2.0 for Windows (アストロアーツ 編著 / アスキー出版局刊) で作成したものです。
光度グラフはComet for Windowsで作成したものです。

---------------------------------------------------------------------

Copyright(C) 1995-2008 Seiichi Yoshida (comet@aerith.net). All rights reserved.